カタログに戻る

XINGWANG JISHU SW 10-02

運用中アマチュア無線VLEO
NORAD 69321·PAYLOAD·🇨🇳 China
この衛星名は、まだ公式ソースで確認されていません。

打ち上げ May 30, 2026 から Xichang Satellite Launch Center

Loading…

次のパス (今後24時間)

TLE

最新Source: Space-Track

元期: Sep 14, 2026, 15:00 UTC

1 69321U 26120B   26257.62566416  .00005399  00000-0  17951-3 0  9992
2 69321  54.9980 346.1869 0008973 160.0690 200.0687 15.32779533 16447

AllMySatでXINGWANG JISHU SW 10-02をリアルタイム追跡

Download on the App Store